Weather History for Jonesboro, AR

Change the Weather History Date:

Friday, September 6, 2013

  Actual Average Record
Temperature  
Mean Temperature 80 °F 76 °F  
Max Temperature 93 °F 86 °F 110 °F (1925)
Min Temperature 67 °F 65 °F 46 °F (1974)
Degree Days  
Heating Degree Days 0 0  
Month to date heating degree days 0 0  
Since 1 July heating degree days 0 0  
Cooling Degree Days 15 11  
Month to date cooling degree days 83 69  
Year to date cooling degree days 1683 1615  
Growing Degree Days 30 (Base 50)    
Moisture  
Dew Point 66 °F    
Average Humidity 66    
Maximum Humidity 90    
Minimum Humidity 41    
Precipitation  
Precipitation 0.00 in 0.11 in 4.15 in (1973)
Month to date precipitation T 0.56  
Year to date precipitation 37.45 31.67  
Snow  
Snow 0.00 in - - ()
Month to date snowfall 0.0  
Since 1 July snowfall 0.0  
Since 1 September snowfall 0.0  
Snow Depth 0.00 in    
Sea Level Pressure  
Sea Level Pressure 30.09 in    
Wind  
Wind Speed 3 mph (ENE)    
Max Wind Speed 9 mph    
Max Gust Speed 13 mph    
Visibility 10 miles    
Events      
T = Trace of Precipitation, MM = Missing Value Source: NWS Daily Summary

Daily Weather History Graph

Daily Weather History Graph

Search for Another Location

Airport:

Trip Planner

Search our weather history database for the weather conditions in past years. The results will help you decide how hot, cold, wet, or windy it might be!

Date:

Astronomy

Sep. 06, 2013 Rise Set
Actual Time 6:38 AM CDT 7:22 PM CDT
Civil Twilight 6:12 AM CDT 7:48 PM CDT
Nautical Twilight 5:41 AM CDT 8:18 PM CDT
Astronomical Twilight 5:10 AM CDT 8:50 PM CDT
Moon 7:46 AM CDT (9/6) 7:52 PM CDT (9/6)
Length of Visible Light 13h 35m
Length of Day
12h 43m
New Moon, 2% of the Moon is Illuminated
Sep 6
New Moon
Sep 12
First Quarter
Sep 19
Full
Sep 26
Last Quarter
Oct 4
New

Hourly Weather History & Observations

Time (CDT) Temp. Heat Index Dew Point Humidity Pressure Visibility Wind Dir Wind Speed Gust Speed Precip Events Conditions
12:53 AM 69.1 °F - 63.0 °F 81% 30.14 in 10.0 mi NNE 3.5 mph - N/A   Clear
1:53 AM 69.1 °F - 64.0 °F 84% 30.13 in 10.0 mi NE 4.6 mph - N/A   Clear
2:53 AM 69.1 °F - 64.0 °F 84% 30.12 in 10.0 mi NNE 4.6 mph - N/A   Clear
3:53 AM 68.0 °F - 64.0 °F 87% 30.12 in 10.0 mi NNE 4.6 mph - N/A   Clear
4:53 AM 69.1 °F - 63.0 °F 81% 30.11 in 10.0 mi Calm Calm - N/A   Clear
5:53 AM 69.1 °F - 64.0 °F 84% 30.11 in 10.0 mi NE 4.6 mph - N/A   Clear
6:53 AM 70.0 °F - 64.9 °F 84% 30.12 in 10.0 mi NNE 3.5 mph - N/A   Clear
7:53 AM 72.0 °F - 66.0 °F 81% 30.13 in 10.0 mi NE 4.6 mph - N/A   Clear
8:53 AM 73.9 °F - 66.9 °F 79% 30.14 in 10.0 mi ENE 5.8 mph - N/A   Clear
9:53 AM 77.0 °F - 68.0 °F 74% 30.16 in 10.0 mi ENE 4.6 mph - N/A   Clear
10:53 AM 82.9 °F 85.0 °F 66.0 °F 56% 30.15 in 10.0 mi Calm Calm - N/A   Clear
11:53 AM 87.1 °F 88.9 °F 64.9 °F 48% 30.14 in 10.0 mi SE 4.6 mph - N/A   Clear
12:53 PM 89.1 °F 90.3 °F 64.0 °F 43% 30.12 in 10.0 mi SE 4.6 mph - N/A   Clear
1:53 PM 91.0 °F 93.8 °F 66.0 °F 44% 30.09 in 10.0 mi NNE 6.9 mph - N/A   Clear
2:53 PM 91.9 °F 94.1 °F 64.9 °F 41% 30.08 in 10.0 mi East 6.9 mph - N/A   Clear
3:53 PM 90.0 °F 91.7 °F 64.9 °F 43% 30.06 in 10.0 mi ESE 4.6 mph - N/A   Clear
4:53 PM 88.0 °F 90.3 °F 66.0 °F 48% 30.04 in 10.0 mi NE 4.6 mph - N/A   Clear
5:53 PM 87.1 °F 90.6 °F 68.0 °F 53% 30.04 in 10.0 mi Calm Calm - N/A   Partly Cloudy
6:53 PM 82.9 °F 86.5 °F 69.1 °F 63% 30.03 in 10.0 mi Calm Calm - N/A   Clear
7:53 PM 75.0 °F - 68.0 °F 79% 30.04 in 10.0 mi NE 3.5 mph - N/A   Clear
8:53 PM 75.0 °F - 68.0 °F 79% 30.04 in 10.0 mi Calm Calm - N/A   Clear
9:53 PM 72.0 °F - 66.9 °F 84% 30.04 in 10.0 mi Calm Calm - N/A   Clear
10:53 PM 71.1 °F - 66.0 °F 84% 30.04 in 10.0 mi Calm Calm - N/A   Clear
11:53 PM 70.0 °F - 66.0 °F 87% 30.04 in 10.0 mi NE 3.5 mph - N/A   Clear